{"data":{"norad_id":68495,"intl_designator":"2026-067CH","name":"GRAVITAS","alt_names":[],"object_type":"PAYLOAD","status":"ACTIVE","operator":null,"country":"US","launch_date":"2026-03-30","launch_site_code":"AFWTR","launch_vehicle":null,"mission":null,"orbit_class":"UNKNOWN","rcs_meters":null,"size_class":null,"mass_kg":null,"dimensions":null,"purposes":[],"wikipedia_slug":null,"has_3d_model":false,"image_url":null,"decayed_at":null,"tle_current":{"epoch":"2026-09-20T04:00:03.000096Z","epoch_age_seconds":97963,"freshness":"FRESH","line1":"1 68495U 26067CH  26263.16670139  .00074384  00000+0  13486-1 0  9993","line2":"2 68495  97.7348 215.2688 0092765 352.6502 240.8281 14.63087203  4065","mean_motion":14.63087203,"eccentricity":0.0092765,"inclination_deg":97.7348,"raan_deg":215.2688,"arg_perigee_deg":352.6502,"mean_anomaly_deg":240.8281,"bstar":0.013486,"rev_number":406,"period_min":98.422021397449,"perigee_km":617.71851478256,"apogee_km":748.72793099784,"semimajor_km":7061.3602228902,"source":"CELESTRAK","updated_at":"2026-09-20T09:00:24.256996Z"}}}